Total_Precipitation_Accumulation
1.13 1.31 1.78 2.32 2.70 3.15 3.44 3.37 3.16 3.21 3.35 3.40 3.21 3.38 3.62 3.90 4.15 4.08 3.97 3.89 3.81 3.76 3.76 3.77 3.76 3.63 3.55 3.39 3.20 3.06 2.96 2.75 2.54 2.47 2.18 1.87 1.64 1.58 1.54 1.58 1.66 1.65 1.63
1.20 1.47 1.91 2.20 2.57 2.90 3.05 3.30 3.39 3.43 3.27 3.57 3.80 4.02 4.33 4.48 4.76 5.00 5.07 4.92 4.66 4.44 4.21 4.14 3.95 3.66 3.48 3.35 3.14 2.99 2.85 2.60 2.45 2.41 2.38 2.00 1.71 1.44 1.28 1.36 1.38 1.45 1.57
1.46 1.75 2.02 2.14 2.36 2.76 3.00 3.28 3.57 3.67 3.59 4.00 4.51 4.90 5.18 5.19 5.27 5.31 5.37 5.33 4.90 4.50 4.18 3.89 3.73 3.55 3.36 3.19 3.09 2.97 2.85 2.63 2.46 2.37 2.50 2.36 2.07 1.70 1.51 1.38 1.40 1.47 1.52
1.35 1.63 1.89 2.21 2.26 2.54 2.81 3.06 3.41 3.79 4.08 4.49 4.96 5.52 5.77 5.89 5.81 5.52 5.28 4.96 4.54 4.15 3.71 3.48 3.46 3.30 3.09 2.92 2.70 2.56 2.51 2.45 2.36 2.32 2.21 2.19 2.13 1.98 1.80 1.61 1.61 1.63 1.60
1.33 1.47 1.60 1.88 2.10 2.34 2.59 2.88 3.19 3.60 4.25 5.01 5.53 5.89 6.16 6.14 5.74 5.25 4.66 4.22 3.88 3.57 3.30 3.11 3.11 3.01 2.76 2.53 2.29 2.09 2.01 2.02 2.10 2.12 2.09 2.02 1.97 1.83 1.75 1.68 1.61 1.58 1.57
1.44 1.53 1.62 1.84 2.02 2.12 2.33 2.68 3.08 3.37 3.89 4.61 5.20 5.48 5.70 5.65 5.28 4.66 4.13 3.75 3.36 3.03 2.74 2.47 2.35 2.23 2.07 1.96 1.86 1.73 1.67 1.66 1.78 1.86 1.83 1.82 1.82 1.79 1.79 1.75 1.62 1.60 1.67
1.56 1.55 1.56 1.66 1.85 1.94 2.12 2.37 2.66 3.04 3.37 3.74 4.30 4.47 4.52 4.35 3.98 3.73 3.50 3.13 2.74 2.41 2.13 1.93 1.82 1.76 1.70 1.64 1.61 1.56 1.51 1.43 1.45 1.48 1.52 1.55 1.52 1.56 1.69 1.82 1.83 1.75 1.63
1.40 1.41 1.37 1.56 1.80 1.98 2.08 2.16 2.32 2.67 2.99 3.08 3.23 3.22 3.16 3.09 2.92 2.71 2.46 2.23 2.01 1.87 1.74 1.59 1.49 1.46 1.46 1.41 1.40 1.36 1.29 1.21 1.16 1.12 1.18 1.24 1.24 1.38 1.58 1.70 1.86 1.91 1.71
1.26 1.31 1.32 1.41 1.61 1.83 1.91 1.95 1.96 2.04 2.10 2.18 2.24 2.26 2.25 2.11 2.06 1.99 1.79 1.66 1.53 1.43 1.41 1.35 1.27 1.17 1.10 1.05 1.04 1.03 1.04 1.07 1.08 1.03 1.01 1.04 1.07 1.19 1.32 1.44 1.64 1.83 1.78
1.26 1.27 1.30 1.35 1.33 1.38 1.47 1.58 1.64 1.64 1.57 1.58 1.57 1.63 1.63 1.52 1.42 1.35 1.28 1.20 1.14 1.09 1.11 1.06 0.99 0.96 0.97 0.91 0.85 0.84 0.88 0.91 0.96 0.98 0.92 0.92 0.94 0.99 1.05 1.13 1.28 1.47 1.62
1.31 1.26 1.25 1.23 1.14 1.09 1.10 1.22 1.34 1.42 1.38 1.32 1.31 1.34 1.33 1.25 1.15 1.10 1.04 0.99 0.96 0.93 0.89 0.86 0.83 0.81 0.81 0.80 0.82 0.80 0.81 0.87 0.88 0.88 0.87 0.86 0.87 0.92 0.92 0.96 1.06 1.20 1.35
1.30 1.22 1.17 1.19 1.12 1.05 0.99 1.05 1.13 1.10 1.12 1.13 1.19 1.25 1.20 1.16 1.10 1.03 0.97 0.94 0.86 0.81 0.79 0.80 0.76 0.68 0.65 0.68 0.72 0.74 0.74 0.82 0.83 0.83 0.85 0.83 0.84 0.88 0.88 0.90 0.95 1.07 1.23
1.44 1.30 1.19 1.14 1.11 1.07 1.04 1.04 1.06 1.01 0.98 0.93 0.94 1.02 1.03 1.01 0.98 0.90 0.83 0.80 0.77 0.75 0.73 0.68 0.66 0.64 0.60 0.61 0.61 0.62 0.64 0.71 0.77 0.79 0.85 0.88 0.87 0.86 0.84 0.88 0.94 1.05 1.18
1.43 1.29 1.21 1.15 1.07 1.03 1.04 1.04 0.99 0.90 0.87 0.85 0.86 0.91 0.91 0.92 0.94 0.88 0.81 0.76 0.70 0.65 0.61 0.55 0.54 0.60 0.58 0.51 0.49 0.51 0.54 0.60 0.63 0.66 0.79 0.86 0.86 0.85 0.90 0.93 0.98 1.05 1.20
1.45 1.39 1.28 1.16 1.01 0.92 0.92 0.92 0.89 0.85 0.80 0.82 0.85 0.93 0.88 0.84 0.90 0.93 0.84 0.74 0.69 0.64 0.62 0.56 0.51 0.54 0.52 0.46 0.46 0.46 0.46 0.52 0.55 0.57 0.65 0.71 0.74 0.75 0.81 0.84 0.92 1.05 1.19
1.68 1.62 1.46 1.29 1.12 1.01 0.96 0.94 0.90 0.80 0.72 0.75 0.87 0.94 0.93 0.91 0.93 0.96 0.91 0.83 0.75 0.70 0.65 0.59 0.55 0.54 0.47 0.44 0.41 0.42 0.45 0.51 0.58 0.65 0.66 0.61 0.62 0.60 0.59 0.66 0.76 0.91 1.10
1.74 1.60 1.46 1.33 1.22 1.16 1.05 1.02 0.97 0.84 0.79 0.81 0.84 0.90 0.93 0.97 0.98 0.96 0.93 0.89 0.83 0.78 0.67 0.58 0.56 0.55 0.45 0.38 0.33 0.34 0.43 0.54 0.63 0.69 0.67 0.55 0.53 0.63 0.64 0.65 0.69 0.80 0.92
1.87 1.79 1.59 1.43 1.28 1.13 1.04 0.97 0.91 0.84 0.85 0.87 0.84 0.80 0.80 0.81 0.80 0.86 0.91 0.88 0.82 0.75 0.67 0.58 0.55 0.53 0.39 0.33 0.31 0.33 0.39 0.46 0.49 0.51 0.58 0.66 0.67 0.60 0.62 0.63 0.75 0.83 0.94
1.77 1.71 1.57 1.48 1.36 1.20 1.06 0.97 0.92 0.87 0.83 0.81 0.76 0.68 0.64 0.66 0.67 0.73 0.83 0.87 0.81 0.70 0.62 0.56 0.53 0.51 0.40 0.33 0.30 0.32 0.39 0.43 0.40 0.37 0.41 0.48 0.52 0.50 0.58 0.69 0.86 0.91 1.02
1.32 1.29 1.26 1.23 1.16 1.06 0.95 0.94 0.92 0.83 0.76 0.69 0.62 0.57 0.55 0.58 0.61 0.65 0.74 0.79 0.78 0.65 0.53 0.48 0.47 0.44 0.41 0.32 0.27 0.29 0.34 0.41 0.39 0.41 0.47 0.46 0.40 0.42 0.53 0.72 0.92 1.06 1.11
1.10 1.04 1.01 1.03 1.01 0.92 0.88 0.90 0.86 0.79 0.64 0.53 0.52 0.54 0.57 0.60 0.58 0.65 0.72 0.69 0.63 0.58 0.51 0.48 0.46 0.40 0.32 0.27 0.22 0.22 0.26 0.33 0.38 0.43 0.49 0.50 0.43 0.40 0.45 0.63 0.82 1.00 1.04
1.15 1.06 0.99 0.93 0.87 0.84 0.88 0.90 0.81 0.63 0.51 0.49 0.53 0.57 0.57 0.55 0.53 0.63 0.70 0.62 0.58 0.55 0.55 0.52 0.45 0.37 0.29 0.23 0.19 0.15 0.15 0.19 0.36 0.49 0.46 0.44 0.42 0.40 0.46 0.61 0.79 0.93 1.11
1.08 1.03 0.91 0.82 0.74 0.71 0.76 0.78 0.65 0.47 0.43 0.49 0.58 0.60 0.56 0.63 0.62 0.58 0.57 0.55 0.56 0.48 0.44 0.43 0.39 0.36 0.32 0.26 0.19 0.16 0.15 0.18 0.29 0.43 0.46 0.44 0.42 0.52 0.72 0.84 0.96 1.11 1.30
0.90 0.82 0.76 0.70 0.64 0.58 0.55 0.52 0.42 0.40 0.46 0.55 0.57 0.56 0.59 0.70 0.68 0.56 0.45 0.41 0.40 0.37 0.35 0.36 0.36 0.36 0.36 0.29 0.22 0.23 0.23 0.25 0.31 0.41 0.54 0.59 0.62 0.78 0.98 1.14 1.24 1.33 1.37
0.70 0.63 0.63 0.60 0.51 0.46 0.41 0.34 0.30 0.36 0.47 0.50 0.53 0.53 0.56 0.61 0.63 0.51 0.36 0.31 0.26 0.21 0.23 0.26 0.27 0.33 0.33 0.22 0.21 0.22 0.25 0.29 0.32 0.39 0.57 0.72 0.77 0.90 1.04 1.18 1.26 1.32 1.31
0.57 0.56 0.53 0.50 0.44 0.41 0.37 0.31 0.27 0.32 0.44 0.48 0.45 0.41 0.43 0.44 0.44 0.42 0.37 0.24 0.13 0.10 0.10 0.11 0.14 0.17 0.18 0.16 0.15 0.18 0.23 0.27 0.35 0.46 0.70 0.82 0.81 0.87 0.96 1.08 1.17 1.16 1.13